Miscellaneous Local Product
Issued by NWS North Platte, NE

Home | Current Version | Previous Version | Text Only | Print | Product List | Glossary On
Versions: 1 2 3 4 5 6 7 8 9 10 11 12 13 14 15 16 17 18 19 20 21 22 23 24 25 26 27 28 29 30 31 32 33 34 35 36 37 38 39 40 41 42 43 44 45 46 47 48 49 50
000
AXUS43 KLBF 240310
MISLBF


WESTERN AND NORTH CENTRAL NEBRASKA HOURLY WEATHER ROUNDUP
NATIONAL WEATHER SERVICE NORTH PLATTE NE
1000 PM CDT WED MAY 23 2018

NOTE: "FAIR" INDICATES FEW OR NO CLOUDS BELOW 12,000 FEET WITH NO
SIGNIFICANT WEATHER AND/OR OBSTRUCTIONS TO VISIBILITY.

NOTE: STATIONS NOT REPORTING VARIABLES SUCH AS SKY/WEATHER OR
PRESSURE ARE PROVIDED BY RAWS AND APRS NETWORKS AND ARE NOT UNDER
NATIONAL WEATHER SERVICE QUALITY CONTROL.

...OBSERVATIONS IN AND NEAR THE EASTERN PANHANDLE OF NEBRASKA...

CITY           SKY/WX    TMP DP  RH WIND       PRES   REMARKS
PINE RIDGE     LGT RAIN  61  53  75 W17G25    30.00R
GORDON         CLOUDY    65  53  64 NW24G33   29.98R
CHADRON        LGT RAIN  61  53  75 N17       29.94F
ALLIANCE       PTCLDY    64  50  60 N13       29.96R
SIDNEY         PTCLDY    61  56  83 N8        29.93R
CRESCENT LAKE    N/A     65  52  62 SE6         N/A
$$

...OBSERVATIONS IN NORTHERN NEBRASKA AND FAR SOUTHERN SOUTH DAKOTA...

CITY           SKY/WX    TMP DP  RH WIND       PRES   REMARKS
WINNER         FAIR      74  60  61 SE10      29.88R
VALENTINE      CLOUDY    75  62  64 SE10      29.90R
AINSWORTH      PTCLDY    73  61  66 S15       29.92R
O`NEILL        MOCLDY    73  59  62 SE9       29.95S
THEDFORD       MOCLDY    74  61  63 SE12      29.93R
BROKEN BOW     MOCLDY    72  62  71 SE10      29.95R
ORD            CLOUDY    72  64  76 SE7       29.93R
ALBION         CLOUDY    70  65  84 SE3       29.98R
VALENTINE NWR    N/A     74  57  55 S12         N/A
HALSEY           N/A     74  59  59 SE9G17      N/A
BUTTE            N/A     72  60  65 SE12        N/A
CHAMBERS         N/A     68  60  74 E3          N/A
EWING            N/A     70  62  74 CALM        N/A
$$

...OBSERVATIONS IN SOUTHWEST NEBRASKA AND FAR NORTHEAST COLORADO...

CITY           SKY/WX    TMP DP  RH WIND       PRES   REMARKS
WRAY           FAIR      70  52  52 SW5       29.91R
HOLYOKE        FAIR      72  55  56 SE12      29.89S
IMPERIAL       PTCLDY    75  58  55 SE21G30   29.89R
OGALLALA       CLOUDY    72  56  58 S14G26    29.90R
NORTH PLATTE   PTCLDY    73  63  70 SE13G21   29.90S
MCCOOK         PTCLDY    73  61  65 SE13G23   29.90S
LEXINGTON      MOCLDY    75  62  65 S18G26    29.94R
STAPLETON        N/A     72  62  71 NE3G12      N/A
GOTHENBURG       N/A     76  59  54 SE12        N/A
CALLAWAY         N/A     74  63  69 S20         N/A
$$

...OBSERVATIONS IN CENTRAL LINCOLN COUNTY AREA...

CITY           SKY/WX    TMP DP  RH WIND       PRES   REMARKS
N.P. AIRPORT   PTCLDY    73  63  70 SE13G21   29.90S
N.P. DOWNTOWN    N/A     73  64  73 MISG        N/A
N.P. SOUTHEAST   N/A     73  63  71 SE10        N/A
$$

...OBSERVATIONS ACROSS THE ROCKIES AND WESTERN HIGH PLAINS...

CITY           SKY/WX    TMP DP  RH WIND       PRES   REMARKS
RAPID CITY     CLOUDY    69  46  43 SW15G24   29.90R
SCOTTSBLUFF    CLEAR     63  49  60 NE14      29.94S
CHEYENNE       CLEAR     61  45  55 NW5       30.03R
DENVER         PTCLDY    64  46  52 N8        29.98R
BERTHOUD PASS  FAIR      37  28  70 W21G26    30.45S WCI  27
COPPER MTN     PTCLDY    45  21  39 W15       30.43R
MONARCH PASS   PTCLDY    43  16  33 MISG      30.53R
ASPEN          PTCLDY    55  26  32 VRB5      30.16R
STEAMBOAT      FAIR      59  34  38 CALM      30.12R
LARAMIE        CLEAR     55  39  54 NE5       30.11R
CASPER         CLEAR     52  45  77 SW8       29.99R
$$

...OBSERVATIONS ACROSS THE NORTHERN PLAINS...

CITY           SKY/WX    TMP DP  RH WIND       PRES   REMARKS
BISMARCK       CLEAR     70  65  84 S5        29.83R
FARGO          FAIR      74  60  61 SE13G23   29.93S
PIERRE         MOCLDY    72  64  76 SE8       29.82R
SIOUX FALLS    MOCLDY    80  61  52 S15G23    29.95R
$$

...OBSERVATIONS ACROSS THE CENTRAL AND SOUTHERN PLAINS...

CITY           SKY/WX    TMP DP  RH WIND       PRES   REMARKS
OMAHA          PTCLDY    81  61  50 SE10      30.00R
GRAND ISLAND   CLOUDY    77  60  55 SE10      29.98R
KANSAS CITY    CLOUDY    76  65  68 S10       30.07R
WICHITA        MOCLDY    76  68  76 SE15      30.05R
DODGE CITY     CLOUDY    71  57  61 SE21G29   30.03R
OKLAHOMA CITY  PTCLDY    76  67  73 SE8       30.05R
AMARILLO       CLOUDY    67  57  70 NE18      30.09S THUNDER
$$




USA.gov is the U.S. government's official web portal to all federal, state and local government web resources and services.